Location: Castifao
(42.5040°N, 9.1124°E)
Time: 15:38:30
(UTC+00:00)

Cosmos 2297 Rocket - Pass Details

Date: 23 January 2020
Orbit: 838 x 845 km, 71.0° (Epoch: 23 February)

Event Time Altitude Azimuth Distance (km) Brightness Sun altitude
Rises 17:51:47 0° 215° (SW) 3,380 6.1 -15.9°
Reaches altitude 10° 17:54:15 10° 219° (SW) 2,450 5.4 -16.4°
Maximum altitude 17:59:47 57° 298° (WNW) 984 2.8 -17.4°
Drops below altitude 10° 18:05:22 10° 17° (NNE) 2,470 4.4 -18.4°
Enters shadow 18:06:11 - 19° (NNE) 2,771 4.6 -18.5°
